GEFSCGP_500_meanwind_252.txt.gz
Wind_Speed
32 32 34 35 36 39 42 45 47 48 50 52 54 56 56 56 57 57 58 58 58 57 57 56 56 55 54 54 53 52 51 50 48 47 46 45 44 44 42 40 39 38 38 37
29 29 31 32 33 35 38 42 44 46 48 50 53 56 56 57 56 57 58 58 58 57 57 57 57 57 56 55 54 54 52 51 50 49 47 46 46 45 44 43 41 40 39 38
25 25 26 27 29 31 34 37 39 41 43 46 50 54 56 56 56 57 57 58 58 58 57 57 58 58 57 57 55 54 53 52 52 50 49 48 47 46 45 44 43 42 41 40
22 22 23 24 25 26 29 31 35 37 39 41 44 48 53 55 56 57 57 57 58 58 57 57 57 57 57 57 56 55 54 54 53 52 51 49 48 47 46 45 44 44 43 42
21 20 21 21 22 24 25 27 30 33 36 39 41 45 49 51 53 55 56 57 57 57 57 57 57 57 57 57 57 56 56 55 54 53 53 51 50 49 48 47 46 46 44 43
21 20 20 20 21 23 23 24 27 30 32 36 38 42 46 47 49 51 53 55 56 56 56 57 58 58 58 58 57 57 57 56 55 54 53 53 52 51 51 50 48 47 46 45
20 19 20 20 20 21 22 23 24 26 29 32 34 39 43 45 47 49 51 53 54 55 56 56 57 58 58 58 58 57 57 57 57 56 55 55 54 53 52 51 50 49 48 47
20 18 18 19 19 20 20 21 23 25 28 29 31 34 38 42 45 47 49 51 52 54 55 56 57 57 57 58 58 58 57 58 57 57 56 56 55 55 53 52 51 51 49 49
20 19 18 19 18 19 18 19 21 24 26 28 29 31 35 38 41 44 46 48 50 53 55 55 56 57 57 57 57 57 57 58 58 58 57 57 57 56 55 54 53 52 51 50
21 19 18 18 19 18 18 18 18 21 24 26 27 28 32 34 37 41 43 46 48 51 52 54 55 56 57 57 57 57 57 56 56 57 57 57 56 56 56 56 55 53 52 51
20 19 17 17 18 18 18 19 19 19 22 24 26 28 30 32 34 37 41 44 46 49 51 52 53 54 55 56 56 56 57 56 56 56 57 57 56 56 56 56 56 55 53 52
19 19 18 17 17 17 17 18 19 18 19 23 24 26 28 30 32 34 37 40 43 46 48 50 52 53 53 55 55 56 56 56 56 56 57 57 56 56 56 56 56 56 55 54
19 19 19 17 16 15 15 15 17 18 19 21 23 23 25 28 30 32 34 37 39 43 46 48 50 52 52 53 54 54 55 55 56 56 56 57 56 56 56 56 56 56 55 54
20 19 19 18 16 15 15 15 15 17 19 20 22 22 23 26 28 29 30 34 37 40 44 46 49 51 52 53 53 53 53 54 54 55 55 56 56 57 56 56 56 55 55 55
21 20 18 17 15 15 15 15 15 16 18 19 19 20 22 24 26 27 29 31 34 37 41 44 47 49 50 51 52 52 53 53 53 54 55 56 56 57 57 57 56 56 55 55
20 20 18 16 15 15 16 16 16 16 16 19 20 21 20 22 25 27 28 30 32 34 36 40 43 47 48 50 50 51 52 53 53 54 55 55 56 56 57 56 56 57 56 55
20 20 18 16 15 15 15 16 16 17 17 18 20 20 20 21 22 24 26 28 31 32 34 36 39 43 45 48 49 50 51 52 53 53 54 55 56 56 57 57 56 56 56 55
20 19 18 17 15 14 14 14 15 16 16 17 19 20 20 20 21 23 25 26 27 30 32 34 37 39 42 46 48 49 50 51 52 53 54 55 55 56 57 57 56 56 56 55
21 20 18 17 16 15 14 14 14 14 15 16 18 20 21 21 21 23 24 25 26 28 30 31 34 36 39 42 45 48 49 49 50 51 52 53 54 55 56 56 56 56 56 56
21 20 19 17 17 16 15 14 14 14 14 15 16 19 21 22 21 23 24 25 25 26 28 29 31 33 36 39 42 45 46 48 49 50 52 52 53 54 55 55 56 56 56 56
21 19 18 18 17 17 16 15 14 14 14 14 15 17 18 20 21 22 24 26 26 27 27 29 30 31 32 35 38 41 43 45 47 48 50 51 52 53 54 55 55 56 56 56
20 20 19 17 17 16 16 15 15 14 14 14 15 16 17 19 20 21 22 23 25 27 27 28 29 30 31 32 34 36 39 42 43 45 46 48 50 51 52 54 55 55 55 56
20 19 18 18 17 17 17 16 16 16 15 15 15 15 16 17 18 20 21 22 24 26 27 28 28 29 30 31 32 34 35 38 40 41 43 44 46 47 49 50 51 52 53 54
20 19 19 19 17 17 17 17 17 17 16 16 16 16 17 17 17 19 21 22 23 25 26 26 28 29 30 31 32 33 34 35 36 38 40 41 43 44 46 47 48 49 50 51
20 20 20 19 18 18 17 17 17 17 16 16 17 17 17 18 18 19 20 21 22 23 24 25 26 27 29 30 31 31 32 34 35 36 37 39 39 41 43 43 44 45 47 48
20 20 20 19 19 18 17 17 17 17 17 17 17 16 17 17 17 18 19 20 21 22 23 24 25 26 27 29 30 31 32 34 34 34 35 36 37 38 40 41 42 43 44 45

GEFSCGP_500_meanwind_258.txt.gz
Wind_Speed
29 29 29 30 31 32 34 36 37 38 40 43 44 44 46 48 50 53 54 55 55 56 56 55 55 56 55 55 53 52 52 51 50 49 48 47 46 45 44 43 41 40 38 37
29 28 28 28 29 30 32 35 36 37 38 41 43 44 45 46 48 51 53 53 53 55 57 56 56 56 57 56 55 54 53 52 51 51 50 49 48 47 46 44 43 42 40 39
28 27 26 26 26 28 30 31 33 34 35 37 41 42 43 44 46 48 51 52 52 53 55 57 56 56 57 56 55 55 54 53 53 52 51 51 50 49 47 46 45 44 43 40
27 25 25 25 25 26 28 29 30 31 32 33 37 40 41 42 45 47 48 51 52 53 54 55 56 56 56 56 56 56 55 54 54 53 52 52 51 49 48 47 46 45 44 43
26 25 25 24 24 24 25 26 28 29 31 33 35 39 40 41 43 44 46 49 51 53 53 54 55 56 56 56 56 56 56 55 54 54 53 52 52 51 50 49 48 47 46 45
26 26 25 24 23 23 24 25 26 27 30 32 32 35 38 39 41 42 44 47 49 51 52 53 54 55 56 56 56 56 57 56 56 55 55 54 53 53 52 51 49 48 47 46
27 26 24 22 22 23 22 23 23 25 27 29 29 32 35 36 38 40 42 44 46 48 51 53 54 55 56 57 56 56 57 57 56 55 56 56 55 54 53 52 51 50 49 47
27 25 23 22 21 21 21 21 21 23 25 26 27 30 32 34 36 38 40 42 44 46 48 51 53 55 55 56 57 56 57 57 56 56 56 56 56 55 54 53 53 52 51 49
27 25 23 21 19 19 18 19 20 22 23 24 26 29 31 32 35 37 39 41 43 45 47 49 52 54 55 56 56 56 57 57 57 56 56 56 57 56 55 54 53 53 52 51
27 24 22 21 20 19 19 19 20 21 22 23 25 28 29 31 33 35 37 39 41 44 46 48 50 52 54 55 56 56 56 57 57 56 56 55 56 56 56 54 53 53 53 52
27 24 21 20 20 19 18 19 20 21 22 23 25 26 28 30 31 33 36 38 40 42 45 47 48 51 53 54 56 56 56 57 57 57 57 56 54 54 56 56 55 54 53 53
25 24 21 19 19 19 19 19 20 21 22 22 24 25 25 27 30 31 33 35 38 40 42 44 47 50 52 53 54 54 55 56 57 57 56 56 56 55 55 56 56 55 54 54
25 23 21 19 19 18 19 19 19 21 22 23 24 25 24 26 27 29 31 33 35 38 40 42 44 47 50 53 53 53 54 55 56 57 57 57 56 57 56 55 55 56 55 55
24 22 20 19 19 19 19 19 19 20 21 22 23 24 24 25 26 27 29 30 32 35 39 41 42 44 47 50 52 54 54 55 56 56 57 57 57 57 56 56 56 55 56 55
24 22 20 19 18 19 19 19 20 21 21 22 21 22 23 24 25 26 28 29 30 33 36 39 41 42 45 47 49 52 54 55 56 56 56 57 57 57 57 58 57 56 56 56
24 23 21 19 19 19 19 19 20 21 22 22 22 22 22 22 23 24 26 27 29 30 33 36 40 42 44 46 47 49 52 54 55 55 55 56 56 56 56 58 57 57 57 57
23 23 22 20 19 19 18 18 19 20 21 22 22 21 22 21 22 23 23 24 26 29 31 33 35 40 43 45 46 48 50 52 54 54 54 55 55 55 55 56 57 56 57 57
24 24 23 22 20 19 19 19 19 19 19 19 20 20 21 21 20 22 23 23 24 26 28 30 32 36 40 43 45 45 49 51 52 53 53 53 54 54 54 55 55 56 56 56
24 24 23 23 22 21 19 19 19 20 19 20 20 20 21 21 21 21 24 25 25 26 27 28 30 33 36 39 41 43 45 48 50 51 52 52 52 53 54 54 55 55 55 55
24 24 23 23 23 22 21 20 20 20 20 20 21 21 22 22 22 21 23 25 26 26 27 27 29 31 33 37 39 41 43 45 47 48 49 51 51 52 52 53 53 53 54 54
25 24 23 23 23 22 22 22 21 21 21 21 22 22 22 22 22 22 22 23 24 25 26 27 28 30 32 34 37 39 41 43 45 47 48 48 49 50 51 52 52 52 53 53
24 24 24 23 23 23 23 23 23 22 22 22 22 22 22 22 21 21 22 22 23 24 24 26 27 29 30 33 35 38 40 41 43 45 46 47 48 49 49 50 51 52 52 53
24 24 23 23 23 24 24 24 24 23 22 22 22 22 22 21 21 20 20 21 22 23 24 25 26 28 29 31 34 36 39 40 41 43 44 45 45 46 48 48 49 50 51 52
24 24 24 23 23 24 24 24 23 23 22 22 22 22 22 21 21 20 19 20 21 23 24 25 26 27 28 30 32 35 37 39 40 41 42 43 44 44 46 47 47 48 49 49
25 25 25 24 24 24 24 24 24 23 22 22 22 22 22 21 20 19 19 19 20 21 22 23 25 26 27 29 30 32 35 37 39 41 42 43 43 44 44 44 44 45 46 47
26 26 26 25 25 25 24 25 24 24 23 22 22 21 21 20 19 19 19 19 20 20 21 22 24 25 25 27 28 31 33 35 36 37 39 41 42 42 42 42 43 44 44 45

GEFSCGP_500_meanwind_264.txt.gz
Wind_Speed
29 28 26 26 27 28 29 30 32 33 35 37 39 39 39 39 40 42 45 48 48 47 48 49 50 51 51 52 52 51 52 51 50 50 49 49 48 47 47 46 45 44 43 42
30 28 27 26 27 27 28 29 31 32 33 36 37 38 38 38 39 41 44 47 47 47 48 49 49 51 51 52 52 51 52 51 51 50 50 50 49 49 48 47 46 45 44 44
31 30 29 28 27 27 27 28 29 30 31 33 35 36 37 37 38 40 43 46 47 47 47 48 48 49 51 51 52 52 51 52 51 50 51 51 50 50 50 49 47 46 45 44
31 30 29 28 26 26 26 26 27 28 29 30 32 34 35 36 37 39 41 44 46 47 47 48 48 48 50 50 52 53 52 52 53 51 50 50 50 50 49 48 47 46 45 45
31 30 28 27 25 25 25 25 25 25 26 28 30 33 33 34 36 37 40 42 45 46 47 47 47 48 49 49 50 53 53 53 54 53 52 51 51 51 50 49 48 47 46 46
31 29 27 26 24 24 24 24 24 24 24 26 27 30 31 32 35 36 38 40 43 45 46 46 47 48 49 49 49 52 54 53 54 54 54 53 52 51 51 50 49 48 48 47
29 26 24 24 23 22 23 22 22 23 24 25 24 27 29 31 33 34 36 38 41 44 44 45 47 48 49 50 50 52 53 53 53 54 54 54 53 53 52 51 49 49 49 49
28 25 23 21 21 20 20 21 22 23 24 24 24 27 28 29 31 33 34 36 39 42 43 45 46 48 49 50 51 52 53 53 53 54 54 55 55 54 53 53 52 51 50 50
27 24 22 21 20 18 18 18 19 21 23 23 24 25 27 29 30 31 33 35 37 40 42 44 46 48 49 50 51 53 54 54 54 53 53 55 55 55 55 54 54 52 51 50
26 23 21 20 20 19 19 18 17 19 20 22 23 23 24 27 29 30 30 33 36 38 40 42 45 47 48 50 50 52 54 53 54 54 53 54 55 56 56 55 55 54 52 51
25 23 22 21 20 19 18 17 17 19 20 22 23 23 23 25 27 28 29 31 34 38 39 40 42 46 48 49 50 53 53 54 54 55 53 53 55 56 56 56 56 55 54 53
24 24 22 20 20 19 18 18 17 18 20 22 23 23 23 24 26 27 27 29 32 35 38 39 41 43 46 48 50 53 54 54 54 54 54 54 54 54 55 56 56 56 55 55
25 23 22 20 19 19 19 18 18 19 21 21 22 22 22 24 25 25 25 27 30 33 36 38 40 42 44 46 48 51 54 55 54 54 55 55 55 54 55 55 55 55 55 55
24 22 22 21 20 19 19 19 20 20 21 21 21 21 21 23 24 27 27 27 30 32 34 36 38 40 43 46 48 51 53 55 54 55 56 56 55 55 55 55 55 56 55 55
24 23 22 21 20 20 19 19 20 20 20 21 21 21 22 24 25 26 27 27 29 31 33 35 37 39 40 43 46 48 51 53 54 55 57 56 56 56 56 55 54 55 56 55
24 23 22 21 21 21 20 20 20 20 20 21 21 21 21 22 24 25 26 26 28 29 32 33 35 37 39 40 44 48 49 51 52 54 55 56 57 57 57 56 55 55 55 55
24 23 23 22 21 21 20 21 21 21 20 21 21 21 21 22 23 24 24 25 26 26 29 32 34 36 38 40 41 45 47 49 51 53 54 55 55 56 57 58 57 56 56 55
24 24 23 23 22 21 20 21 21 21 21 21 21 22 22 22 23 24 24 25 25 26 27 29 32 34 36 38 40 43 46 48 49 51 53 54 54 55 56 57 57 56 56 56
24 24 24 23 23 21 21 22 22 22 21 22 22 23 23 23 22 23 25 26 26 25 26 27 29 32 34 37 39 42 45 46 47 49 52 53 53 54 54 55 56 55 55 56
25 24 24 24 24 23 22 23 23 23 23 23 22 23 23 24 24 23 24 25 25 25 25 25 27 29 32 34 37 40 43 44 45 47 50 52 53 54 54 54 54 54 54 54
25 25 24 24 24 23 23 23 23 24 24 24 24 23 23 24 24 24 23 24 24 24 24 25 26 27 29 32 34 37 39 41 44 45 47 50 51 53 53 54 54 53 53 54
26 26 25 24 24 23 23 24 25 25 25 25 24 24 23 23 23 24 24 23 23 23 23 24 24 25 27 29 32 34 35 39 41 44 45 47 50 52 52 53 54 54 54 54
26 25 25 25 24 24 25 25 26 25 25 25 24 24 23 23 23 24 24 23 23 23 23 23 23 23 25 27 29 31 33 35 38 40 42 44 47 49 51 52 53 53 53 53
25 25 25 24 23 24 25 25 25 25 25 25 24 24 22 23 23 23 23 22 21 22 23 22 23 23 24 25 27 29 31 34 36 39 40 42 44 47 48 50 52 52 51 52
26 26 25 24 24 24 25 26 25 25 25 25 24 23 22 22 22 22 22 21 21 21 22 22 23 24 24 25 26 28 31 33 34 36 38 40 42 44 46 48 49 50 50 50
26 27 26 25 25 26 26 26 25 25 25 25 24 23 23 22 22 21 21 21 21 21 21 22 23 24 24 25 25 26 29 31 33 35 36 38 40 42 44 46 46 47 48 48

GEFSCGP_500_meanwind_270.txt.gz
Wind_Speed
34 33 33 32 31 31 31 32 33 32 34 35 37 39 39 41 41 43 44 44 44 45 46 47 48 49 49 50 50 49 49 50 49 48 48 49 49 49 48 48 47 46 44 43
34 33 32 31 31 31 31 32 32 32 33 34 35 37 38 39 40 41 42 43 43 44 45 46 47 48 49 49 50 49 50 50 50 50 49 48 49 49 49 49 48 47 46 44
34 33 32 31 31 31 31 30 31 32 32 33 34 36 36 38 39 39 40 42 42 43 44 46 46 47 48 48 49 50 50 50 50 51 50 50 50 50 51 51 49 49 47 46
33 32 32 32 31 31 29 29 30 31 32 33 32 34 34 35 37 38 38 40 41 42 43 44 45 46 47 47 48 50 50 51 51 51 51 50 50 51 51 51 50 49 49 49
33 32 32 31 30 30 29 29 29 30 30 31 31 32 31 32 35 37 37 38 40 41 42 43 44 45 46 46 47 49 50 50 51 52 52 51 50 50 51 52 52 51 50 50
34 33 32 31 30 29 28 28 29 29 29 29 28 29 30 30 32 34 35 36 38 40 41 42 44 45 45 46 47 47 49 50 50 50 52 52 52 51 51 52 53 52 51 50
34 33 31 30 29 28 27 27 28 27 27 28 26 27 27 28 30 32 34 35 35 37 39 42 43 44 46 46 47 47 47 49 50 49 51 52 52 53 53 52 53 53 52 51
34 31 30 29 29 28 26 26 26 27 26 26 25 25 24 26 28 30 32 34 34 35 37 40 42 43 44 45 46 47 48 48 49 49 49 51 52 53 55 54 53 53 52 52
33 30 29 27 27 27 25 24 24 25 26 26 26 25 24 25 27 29 31 33 34 35 37 39 41 42 43 44 45 47 48 47 47 48 48 49 51 51 53 54 54 53 52 52
33 30 28 27 26 25 24 24 24 24 26 27 26 25 24 25 28 29 30 33 35 36 36 38 40 42 42 43 44 46 47 48 47 48 48 49 50 51 53 52 54 54 54 53
32 30 28 26 25 24 23 23 24 24 25 27 28 25 25 26 28 30 30 32 34 36 37 39 40 41 42 43 45 47 47 48 49 49 50 50 50 51 53 53 52 53 53 54
32 30 28 25 25 24 23 23 24 24 24 26 27 27 26 28 28 29 30 31 32 34 36 38 40 42 42 44 45 46 48 49 49 50 50 51 51 52 53 53 54 53 52 53
32 30 28 26 26 25 24 23 24 24 25 25 26 26 26 28 29 29 30 31 33 33 34 37 40 42 42 43 45 47 48 50 50 50 51 51 51 53 53 53 54 54 54 53
31 30 28 28 27 26 24 23 23 24 25 25 25 25 25 26 28 29 29 31 33 34 35 37 39 40 41 42 43 46 48 50 51 51 52 53 53 54 55 54 55 55 55 55
31 30 29 28 28 27 25 24 24 24 24 25 24 24 23 26 27 28 29 30 32 33 35 36 38 40 40 42 42 44 46 49 51 52 53 54 55 56 56 55 55 56 56 56
31 31 30 29 28 27 25 25 26 25 25 25 25 24 24 24 26 27 28 29 30 32 34 35 37 38 39 41 43 44 45 48 50 52 53 54 57 57 56 55 55 56 57 57
31 32 32 30 29 28 26 26 25 25 25 25 25 24 25 25 26 27 27 28 28 31 32 34 35 36 37 39 41 42 44 45 47 49 51 54 56 58 58 58 57 57 58 58
31 31 31 30 30 28 27 26 25 26 26 26 26 26 25 25 26 26 27 28 28 29 30 32 34 35 35 36 38 40 41 43 45 46 47 51 54 56 57 57 58 57 58 57
31 31 31 31 31 29 27 27 27 27 26 27 27 27 27 27 26 26 27 28 28 29 30 32 33 35 35 36 38 39 40 42 43 45 46 47 50 53 55 56 57 58 58 58
31 31 31 31 31 29 28 28 29 28 27 27 27 28 27 27 27 26 27 27 28 28 30 31 32 34 34 35 36 38 40 42 43 44 46 48 49 51 53 55 57 58 58 58
30 30 30 30 30 29 29 29 29 29 28 28 28 28 28 28 28 27 27 27 28 29 29 31 32 33 33 34 35 36 38 40 41 42 44 46 48 49 52 53 55 56 58 58
30 31 30 30 30 29 29 29 28 28 28 29 28 28 28 29 29 28 28 28 28 28 29 29 30 31 32 33 33 34 35 37 38 39 41 43 45 47 49 51 53 54 56 57
30 30 30 30 29 29 29 29 29 29 29 29 28 28 28 28 28 28 27 27 28 28 28 29 29 29 30 31 32 33 33 34 36 37 38 41 42 44 46 48 50 51 53 55
30 30 30 29 28 29 29 29 29 29 29 29 28 28 28 28 27 27 27 28 28 27 28 28 28 28 28 29 30 30 31 32 34 35 36 38 41 43 44 46 48 50 52 53
31 31 30 29 29 29 29 29 30 29 29 28 28 28 27 27 27 27 27 27 27 27 27 26 26 27 27 27 28 29 30 31 32 33 34 35 37 40 42 44 45 48 50 51
30 31 30 30 30 30 29 29 30 29 28 28 27 27 27 27 27 27 27 27 26 26 26 26 26 26 26 27 28 28 29 31 32 33 33 34 35 36 39 41 43 44 46 48

GEFSCGP_500_meanwind_276.txt.gz
Wind_Speed
32 31 30 30 30 29 30 31 31 31 32 34 34 35 36 37 38 39 40 41 42 43 44 45 45 45 47 48 49 49 50 49 49 49 50 50 50 51 51 50 50 49 48 47
31 30 30 29 29 30 30 31 30 31 32 33 34 34 35 37 38 39 39 41 41 42 44 45 45 45 46 47 49 50 50 49 49 50 50 50 51 51 52 51 51 51 50 49
31 30 29 29 30 30 30 31 30 30 31 32 33 32 31 35 37 37 38 40 41 41 42 43 44 44 46 47 49 50 51 51 50 51 51 51 52 53 53 53 52 52 52 51
30 30 29 29 30 30 29 29 29 29 30 31 31 32 31 31 34 36 37 38 38 39 40 41 43 44 45 46 48 50 50 51 50 51 52 51 51 51 52 53 52 52 52 52
31 30 30 30 31 31 29 28 28 28 29 30 30 31 31 30 31 33 34 35 36 38 38 40 41 43 45 46 48 50 50 50 50 50 52 52 51 50 51 52 53 53 53 53
31 31 31 30 30 30 29 28 27 27 28 29 28 29 29 29 29 30 32 33 34 36 37 38 40 41 43 44 46 48 49 49 50 50 50 51 52 51 51 52 53 53 53 53
32 31 31 31 31 30 29 28 28 27 27 27 26 27 27 28 28 28 29 31 33 34 36 37 38 40 41 43 44 47 49 49 50 49 49 51 52 51 51 53 54 54 53 53
32 31 31 31 31 30 28 27 26 27 27 26 26 27 26 26 27 28 28 30 31 33 34 36 37 39 41 43 44 46 47 48 48 49 47 49 51 51 51 52 54 55 54 53
33 32 31 31 31 29 28 27 26 27 27 27 26 27 27 25 26 27 29 30 31 32 33 34 36 38 40 41 43 44 46 47 48 48 49 46 48 50 51 52 53 55 56 55
33 33 32 31 30 29 28 27 26 26 26 27 27 26 26 25 26 28 29 30 31 31 33 34 35 36 39 40 41 43 45 46 47 48 48 47 46 47 50 52 52 54 55 55
33 33 32 31 29 28 27 26 25 25 25 26 28 26 26 26 26 28 30 30 30 31 33 34 35 37 38 39 41 42 43 45 46 47 48 48 48 47 48 50 51 53 54 54
34 33 32 31 29 28 27 26 25 25 26 26 27 26 26 26 26 27 28 29 29 30 32 33 35 36 37 39 40 42 43 44 45 46 47 47 49 49 47 49 51 52 53 53
33 33 32 31 29 27 26 26 25 26 26 26 26 26 26 27 27 27 27 29 31 30 31 32 34 35 36 37 38 39 42 44 45 45 45 47 48 50 50 50 51 53 54 54
33 32 31 30 29 28 26 26 25 25 25 25 25 25 26 27 28 28 28 29 31 32 32 32 33 35 37 38 39 39 41 44 45 45 45 46 47 49 52 53 53 54 55 56
33 32 31 29 29 28 27 26 25 25 26 26 25 26 26 27 27 28 28 29 31 32 32 33 34 36 36 37 38 40 42 43 44 45 46 47 47 48 49 52 54 54 55 56
33 32 31 29 29 28 27 26 26 26 27 26 26 26 26 27 27 28 28 29 29 31 32 33 35 36 37 38 39 40 41 42 43 44 46 47 48 48 49 50 52 53 54 55
32 32 31 29 29 29 28 27 27 27 27 27 27 26 26 26 26 27 28 28 28 29 31 32 34 35 36 38 40 41 42 42 43 44 46 47 47 48 49 50 52 54 54 54
31 31 30 30 29 29 29 28 28 27 27 27 27 26 26 26 26 26 27 28 28 27 29 31 32 34 36 37 38 41 42 43 44 45 46 47 48 48 48 49 50 52 55 55
30 30 30 30 30 30 29 28 28 28 27 27 27 27 27 27 26 26 27 28 28 27 28 30 32 33 35 36 37 38 40 42 43 44 46 47 48 49 49 49 50 51 53 55
30 30 30 30 30 30 29 29 28 28 27 27 28 27 27 27 27 26 27 27 28 28 28 29 31 32 33 35 36 38 39 41 42 43 44 47 48 48 48 49 50 51 51 53
30 30 29 30 30 30 30 29 28 28 28 28 28 28 28 28 27 26 27 27 27 28 28 29 30 32 32 33 35 36 37 39 41 42 43 45 47 47 47 48 50 51 51 52
30 30 30 30 30 30 30 29 29 29 29 29 29 29 29 28 28 28 27 27 27 28 28 29 29 30 31 32 33 33 34 36 38 40 42 43 44 46 47 48 48 49 51 52
31 31 31 31 31 30 30 29 29 29 29 29 29 29 29 28 28 28 28 28 27 28 28 29 29 28 29 30 31 31 32 33 35 37 39 40 41 42 43 44 45 47 49 51
32 32 32 31 30 30 30 30 30 30 29 29 29 29 28 28 28 28 28 28 28 27 28 29 28 28 29 30 30 30 30 31 33 35 36 38 38 39 41 42 43 44 46 47
32 32 31 30 30 30 30 30 30 30 30 29 29 29 28 27 27 27 28 28 28 28 28 29 28 27 28 29 29 30 30 31 31 32 33 35 36 37 38 40 40 41 42 43
31 31 30 30 30 31 30 30 30 30 30 29 29 29 29 28 27 27 28 28 28 28 29 29 28 28 28 28 28 29 29 30 29 30 30 32 34 34 35 36 38 38 38 39